Погода в Сокуре

Россия / Саратовская область     51°59′46″N   45°47′27″E
темп.,
°C
ветер,
м/с
пор.,
м/с
влажн.,
%
обл.,
%
осадки,
мм/ч
давл.,
гПа
погр.,
м
27 сентября, пн
пн2701:00+9ссв5993100 2.4 1001581
04:00+9с5993100 4.1 1003593
07:00+10с61191100 1.1 1004509
10:00+10ссв61184100 1.3 1006745
13:00+14с8106269 0.6 10081389
16:00+13с81068100 1.3 10101236
19:00+10с6108399 0.1 1012644
22:00+9с5983100 0.1 1014599
28 сентября, вт
вт2801:00+7с5888100 0.0 1015433
04:00+7св5880100 0.2 1016714
07:00+6св4689100 0.1 1019884
10:00+5св587499 0.4 1021992
13:00+6св5762100 0.0 10231412
16:00+7св5763100 0.0 10241146
19:00+6св5968100 0.0 1026911
22:00+6св4859100 0.0 1027821
29 сентября, ср
ср2901:00+6ссв365491 0.0 1027268
04:00+2с4879100 0.0 1028229
07:00+1с4108179 0.0 1029293
10:00+6св685823 0.0 1029821
13:00+9св564566 0.0 10291641
16:00+10св564071 0.0 10291860
19:00+6ссв34558 0.0 103053
22:00+4ссв22635 0.0 103219
30 сентября, чт
чт3001:00+3с22695 0.0 103213
04:00+2с22755 0.0 103319
07:00+1ссз22804 0.0 103421
10:00+7ссв34570 0.0 1035508
13:00+10ссв33435 0.0 10341498
16:00+10с334150 0.0 10331702
19:00+7ссз235688 0.0 103424
22:00+7с2559100 0.0 1034190
1 октября, пт
пт101:00+7ссз235899 0.0 103473
04:00+5ссз33635 0.0 103542
07:00+4ссз22855 0.0 103529
10:00+9ссз336099 0.0 1036429
13:00+10сз335461 0.0 1035705
16:00+13сз345030 0.0 10341316
19:00+11зсз336381 0.0 103459
22:00+8ссз22805 0.0 103525